sat.trackr.live / text

‹ back to catalog

STARLINK-11297 [DTC]

NORAD 61060 · 2024-164L

PAYLOAD ACTIVE UNKNOWN

§ Identity

Operator
Country
US
Launch date
2024-09-13
Launch site
AFWTR
Launch vehicle
Mass (kg)
RCS (m²)

Purposes: comms

External: N2YO · Heavens-Above · Gunter

§ Orbital elements

Epoch: 2026-05-24T19:42:17.700480Z

Period
91.74 min
Inclination
53.1565°
Eccentricity
0.0001123
Mean motion
15.69711717 rev/d
Perigee alt
359.0 km
Apogee alt
360.5 km
Semi-major
6,737.9 km
B*
1.9474e-5
RAAN
296.1510°
Arg perigee
109.1862°
Mean anomaly
250.9277°
Rev number
9,737

§ Raw data

STARLINK-11297 [DTC]1 61060U 24164L   26144.82103820  .00001771  00000+0  19474-4 0  99952 61060  53.1565 296.1510 0001123 109.1862 250.9277 15.69711717 97371

JSON: /api/v1/satellites/61060 · /tle

For live sub-satellite position, see the globe view (requires WebGL).

§ Visibility from observer

Set your observer location to see the next 7 days of passes ≥ 10°. The values pass through the URL so the page stays shareable.

No JS? Fill the form by hand. The geolocation button needs JavaScript.